HST 1 20580U 90037B 25036.18055468 .00009288 00000-0 37671-3 0 9991 2 20580 28.4665 218.2510 0002946 65.3833 294.7067 15.22863392712787 ISS (ZARYA) 1 25544U 98067A 25036.03454442 .00016993 00000-0 30705-3 0 9998 2 25544 51.6377 241.5810 0003477 275.1739 245.3794 15.49813608494665 CXO 1 25867U 99040B 25037.21592970 .00000716 00000-0 00000-0 0 9996 2 25867 46.5701 136.5229 8614898 306.8174 0.4690 0.37805710 15459